Time,TemperatureF,DewpointF,PressureIn,WindDirection,WindDirectionDegrees,WindSpeedMPH,WindSpeedGustMPH,Humidity,HourlyPrecipIn,Conditions,Clouds,dailyrainin,SoftwareType,DateUTC
2015-05-28 00:04:00,52.2,49.9,28.82,West,270,0.0,0.0,92,0.00,,CLR,0.00,VWS V14.01,2015-05-28 07:04:00,
2015-05-28 00:09:00,52.0,49.7,28.82,West,270,0.0,0.0,92,0.00,,CLR,0.00,VWS V14.01,2015-05-28 07:09:00,
2015-05-28 00:14:00,51.8,49.5,28.82,NNE,22,0.0,0.0,92,0.00,,CLR,0.00,VWS V14.01,2015-05-28 07:14:00,
2015-05-28 00:19:00,51.6,49.7,28.82,WSW,248,0.0,1.1,93,0.00,,CLR,0.00,VWS V14.01,2015-05-28 07:19:00,
2015-05-28 00:24:00,51.6,49.7,28.82,WSW,248,0.0,1.1,93,0.00,,CLR,0.00,VWS V14.01,2015-05-28 07:24:00,
2015-05-28 00:29:00,51.3,49.3,28.82,WSW,248,0.0,1.1,93,0.00,,CLR,0.00,VWS V14.01,2015-05-28 07:29:00,
2015-05-28 00:34:00,51.1,49.1,28.82,WSW,248,1.1,1.1,93,0.00,,CLR,0.00,VWS V14.01,2015-05-28 07:34:00,
2015-05-28 00:39:00,51.1,49.1,28.82,WSW,248,0.0,1.6,93,0.00,,CLR,0.00,VWS V14.01,2015-05-28 07:39:00,
2015-05-28 00:44:00,50.7,48.8,28.82,WSW,248,0.0,1.6,93,0.00,,CLR,0.00,VWS V14.01,2015-05-28 07:44:00,
2015-05-28 00:49:00,50.7,48.8,28.82,NE,45,0.0,2.0,93,0.00,,CLR,0.00,VWS V14.01,2015-05-28 07:49:00,
2015-05-28 00:54:00,50.5,48.9,28.82,NE,45,0.0,2.0,94,0.00,,CLR,0.00,VWS V14.01,2015-05-28 07:54:00,
2015-05-28 00:59:00,50.2,48.5,28.82,NE,45,0.0,2.0,94,0.00,,CLR,0.00,VWS V14.01,2015-05-28 07:59:00,
2015-05-28 01:04:00,50.2,48.5,28.82,NE,45,0.0,0.0,94,0.00,,CLR,0.00,VWS V14.01,2015-05-28 08:04:00,
2015-05-28 01:09:00,50.0,48.3,28.82,NE,45,0.0,0.0,94,0.00,,CLR,0.00,VWS V14.01,2015-05-28 08:09:00,
2015-05-28 01:14:00,49.8,48.2,28.82,NE,45,0.0,0.0,94,0.00,,CLR,0.00,VWS V14.01,2015-05-28 08:14:00,
2015-05-28 01:19:00,49.8,48.5,28.82,NE,45,0.0,0.0,95,0.00,,CLR,0.00,VWS V14.01,2015-05-28 08:19:00,
2015-05-28 01:24:00,49.6,48.3,28.82,NE,45,0.0,0.0,95,0.00,,CLR,0.00,VWS V14.01,2015-05-28 08:24:00,
2015-05-28 01:29:00,49.5,48.1,28.82,NE,45,0.0,0.0,95,0.00,,CLR,0.00,VWS V14.01,2015-05-28 08:29:00,
2015-05-28 01:34:00,49.3,47.9,28.82,WSW,248,0.0,0.0,95,0.00,,CLR,0.00,VWS V14.01,2015-05-28 08:34:00,
2015-05-28 01:39:00,49.5,48.1,28.82,WSW,248,0.0,0.0,95,0.00,,CLR,0.00,VWS V14.01,2015-05-28 08:39:00,
2015-05-28 01:44:00,49.3,47.9,28.82,NW,315,0.0,0.0,95,0.00,,CLR,0.00,VWS V14.01,2015-05-28 08:44:00,
2015-05-28 01:49:00,49.1,47.7,28.82,NW,315,0.0,0.0,95,0.00,,CLR,0.00,VWS V14.01,2015-05-28 08:49:00,
2015-05-28 01:54:00,48.9,47.5,28.82,NW,315,0.0,0.0,95,0.00,,CLR,0.00,VWS V14.01,2015-05-28 08:54:00,
2015-05-28 01:59:00,48.9,47.5,28.82,NW,315,0.0,0.0,95,0.00,,CLR,0.00,VWS V14.01,2015-05-28 08:59:00,
2015-05-28 02:04:00,48.9,47.5,28.82,NW,315,0.0,0.0,95,0.00,,CLR,0.00,VWS V14.01,2015-05-28 09:04:00,
2015-05-28 02:09:00,48.6,47.2,28.82,NW,315,0.0,0.0,95,0.00,,CLR,0.00,VWS V14.01,2015-05-28 09:09:00,
2015-05-28 02:14:00,48.4,47.0,28.82,WNW,292,0.0,0.0,95,0.00,,CLR,0.00,VWS V14.01,2015-05-28 09:14:00,